Location: *
(46.6789°N, 0.8436°E)
Time: 03:41:14
(UTC+00:00)

Daily predictions for brighter satellites

Satellite Brightness Start Highest point End
(mag) Time Altitude Azimuth Time Altitude Azimuth Time Altitude Azimuth
SL-16 R/B 4.4 03:17:58 20° E 03:17:58 20° E 03:20:04 10° ESE
USA 234 4.0 03:29:11 10° ENE 03:33:57 47° E 03:33:57 47° E
CZ-4C R/B 3.3 03:54:02 51° NNE 03:54:47 53° NE 04:02:40 10° ESE
Lacrosse 5 3.6 04:14:14 25° SSE 04:14:14 25° SSE 04:16:20 10° SE
Cosmos 2297 Rocket 3.3 04:24:20 33° NNE 04:24:20 33° NNE 04:27:27 10° NNE
Cosmos 2227 Rocket 3.1 04:27:52 38° NNE 04:27:52 38° NNE 04:31:20 10° NNE
Cosmos 1072 Rocket 4.5 04:20:03 10° S 04:26:07 76° E 04:32:16 10° NNE
Geosat 4.3 04:22:33 10° SE 04:27:14 62° ENE 04:27:14 62° ENE
Cosmos 1513 Rocket 4.5 04:33:40 10° S 04:40:05 87° E 04:46:33 10° N
Nadezhda 4 Rocket 4.2 04:34:48 10° N 04:41:02 67° E 04:47:10 10° SSE
Cosmos 1461 3.8 04:51:01 41° NNE 04:51:22 42° NE 04:55:30 10° ESE
COSMO-SKYMED 1 2.9 04:49:42 10° SSE 04:53:58 64° ENE 04:55:01 47° NNE
Okean O Rocket 3.7 04:51:09 10° NE 04:54:53 27° E 04:58:37 10° SSE
Cosmos 1607 3.9 04:58:44 55° WNW 04:59:09 56° NW 05:05:14 10° NNE
SL-16 R/B 2.4 04:59:54 51° SW 04:59:54 51° SW 05:05:00 10° S
Cosmos 2242 Rocket 3.7 04:58:14 43° N 04:59:41 75° E 05:04:12 10° SSE
GEOS 3 Rocket 3.9 04:57:06 10° SSE 05:01:33 45° SW 05:01:33 45° SW
Cosmos 1470 Rocket 3.4 04:58:19 10° S 05:02:48 86° W 05:07:20 10° N
Cosmos 2084 Rocket 3.8 05:03:00 56° N 05:03:38 64° NE 05:08:01 10° SE
Cosmos 1371 Rocket 4.0 04:58:56 10° SSW 05:04:11 84° ESE 05:09:26 10° NNE
Cosmos 614 Rocket 3.8 05:04:29 64° WNW 05:05:00 70° WSW 05:10:04 10° S
Cosmos 1862 Rocket 4.3 05:06:36 39° SSW 05:06:36 39° SSW 05:09:34 10° S
Cosmos 1603 4.2 05:02:03 22° NNW 05:05:42 58° ENE 05:11:20 10° SE
Meteor 1-27 Rocket 3.7 05:03:30 36° NNW 05:05:51 64° W 05:11:42 10° S
Cosmos 407 Rocket 3.4 05:06:12 53° NW 05:07:23 71° WSW 05:12:41 10° S
Cosmos 1703 Rocket 4.3 05:03:53 14° N 05:07:35 53° ENE 05:11:55 10° SSE
Cosmos 2082 3.7 05:10:06 51° WNW 05:10:38 52° WNW 05:16:09 10° NNE
CZ-2C R/B 4.5 05:07:16 10° N 05:07:45 13° N 05:07:45 13° N
FALCON 9 R/B 4.4 05:07:47 18° SW 05:13:44 46° SSE 05:39:13 10° E
Cosmos 1140 Rocket 3.4 05:11:47 34° NNW 05:14:08 87° WSW 05:19:21 10° SSE
Cosmos 2034 Rocket 3.9 05:11:52 10° SSW 05:18:07 69° W 05:24:30 10° N
SKYMED 3 4.4 05:13:48 10° S 05:18:08 73° WSW 05:19:27 44° NNW
USA 234 3.4 05:12:19 10° NE 05:18:40 56° NNW 05:21:18 35° W
ATLAS 5 CENTAUR R/B 2.5 05:19:23 33° NNW 05:19:23 33° NNW 05:23:18 10° NNE
Cosmos 1023 Rocket 4.4 05:23:55 31° NW 05:26:22 68° WSW 05:31:34 10° S
Meteor 2-11 Rocket 4.4 05:22:39 10° SSW 05:28:38 58° WNW 05:34:40 10° N
ADEOS Rocket 4.5 05:24:31 10° SE 05:30:58 40° ENE 05:36:50 10° N
BREEZE-M DEB (TANK) 3.5 05:23:22 15° WSW 05:32:10 85° SSE 05:35:34 10° ENE
STARLINK 1044 3.2 05:35:58 45° NNE 05:36:07 46° NNE 05:38:54 10° E
STARLINK 1050 3.6 05:37:01 40° NNW 05:37:43 49° NNE 05:41:02 10° E
CZ-4B DEB 4.1 05:32:35 10° NNE 05:38:07 82° WNW 05:43:39 10° SSW
Cosmos 2195 Rocket 4.5 05:33:46 10° N 05:40:09 84° W 05:46:29 10° S
STARLINK 1055 3.6 05:39:36 39° NNW 05:40:25 50° NNE 05:43:44 10° E
Cosmos 1484 Rocket 3.1 05:36:47 10° N 05:40:33 41° WNW 05:44:14 10° SW
PSLV R/B 4.2 05:37:35 10° N 05:41:29 44° WNW 05:45:23 10° SW
SKYMED 2 3.9 05:38:05 10° S 05:42:11 41° W 05:43:42 30° NW
STARLINK 1022 3.6 05:41:19 38° NNW 05:42:13 51° NNE 05:45:33 10° E
NOSS 2-1 (E) 4.5 05:39:33 23° NW 05:43:16 81° SW 05:51:01 10° SSE
Cosmos 1340 4.1 05:39:52 10° SSE 05:43:23 39° E 05:46:54 10° NNE
CZ-4C R/B 3.3 05:39:15 24° WNW 05:43:32 49° WSW 05:51:21 10° S
Cosmos 1092 Rocket 3.9 05:38:50 10° NNW 05:44:58 66° W 05:51:01 10° S
STARLINK 1042 3.5 05:44:37 36° NNW 05:45:40 54° NNE 05:48:59 10° ESE
STARLINK 1056 3.4 05:47:16 35° NW 05:48:26 56° NNE 05:51:47 10° ESE
Cosmos 1624 Rocket 4.2 05:43:33 10° SW 05:48:43 50° WNW 05:53:56 10° NNE
SJ-12 4.1 05:46:37 10° N 05:50:36 47° WNW 05:54:33 10° SW
STARLINK 1054 3.4 05:49:56 33° NW 05:51:12 58° NNE 05:54:33 10° ESE
Lacrosse 5 3.8 05:53:29 13° WSW 05:53:29 13° WSW 05:55:39 10° SW
Cosmos 2263 Rocket 2.4 05:47:57 10° SSW 05:53:32 76° ESE 05:59:07 10° NNE
Cosmos 2056 Rocket 3.7 05:48:49 10° SW 05:53:43 46° WNW 05:58:39 10° NNE
STARLINK 1062 3.3 05:52:24 31° NW 05:53:47 60° NNE 05:57:09 10° ESE
FALCON 9 DEB 2.0 05:53:58 66° NW 05:54:12 80° NNE 05:56:32 10° ESE
STARLINK 1053 3.3 05:55:18 30° NW 05:56:48 63° NNE 06:00:11 10° ESE
ATLAS CENTAUR R/B 3.9 05:55:57 10° N 05:57:34 12° NNE 05:59:09 10° NE
Cosmos 676 Rocket 4.2 05:54:14 17° NW 05:58:07 49° WSW 06:03:11 10° S
STARLINK 1061 3.3 05:57:38 28° NW 05:59:14 65° NNE 06:02:37 10° ESE
Cosmos 2227 4.2 05:53:55 10° SSW 05:59:40 76° WNW 06:05:29 10° NNE
SMAP 4.2 05:56:23 10° NNE 06:00:53 46° E 06:05:22 10° S
STARLINK 1067 3.2 06:00:18 27° NW 06:02:01 68° NNE 06:05:24 10° ESE
Radarsat Rocket 4.4 05:58:17 10° NNE 06:04:22 76° ESE 06:11:07 10° SSW
STARLINK 1058 3.2 06:02:52 25° NW 06:04:42 70° NNE 06:08:06 10° ESE
Meteor 1-14 Rocket 4.3 05:59:50 10° S 06:05:45 86° WNW 06:11:47 10° N
Cosmos 2297 Rocket 3.7 06:06:11 16° NW 06:06:54 16° NW 06:10:23 10° N
STARLINK 1043 3.1 06:05:30 24° NW 06:07:26 73° NNE 06:10:51 10° ESE
ALOS 2.6 06:03:38 10° N 06:08:03 43° WNW 06:12:28 10° SW
Cosmos 1933 Rocket 4.5 06:05:17 10° SW 06:08:53 25° WNW 06:12:31 10° NNW
Cosmos 1954 Rocket 4.4 06:05:30 14° NW 06:09:43 41° WSW 06:14:38 10° S
STARLINK 1065 3.1 06:08:04 22° NW 06:10:06 76° NNE 06:13:31 10° ESE
Cosmos 2227 Rocket 3.7 06:09:44 16° NW 06:10:45 16° NW 06:14:16 10° N
Timation 1 Rocket 4.5 06:04:53 10° SSW 06:10:50 82° ESE 06:16:51 10° NNE
Okean 1-7 3.5 06:06:54 10° NNW 06:11:02 40° W 06:15:08 10° SSW
Cosmos 1346 Rocket 2.8 06:08:15 10° S 06:12:07 81° E 06:16:01 10° NNE
CZ-4B R/B 3.2 06:07:10 10° N 06:12:41 65° WNW 06:18:15 10° SSW
Meteor 1-25 Rocket 4.3 06:07:27 10° SSW 06:12:53 54° WNW 06:18:28 10° N
STARLINK 1063 3.1 06:10:50 21° WNW 06:12:59 80° NNE 06:16:23 10° ESE
Cosmos 1420 Rocket 4.0 06:10:27 10° SW 06:15:36 62° WNW 06:20:46 10° NNE
STARLINK 1064 3.1 06:13:21 20° WNW 06:15:36 83° NNE 06:19:01 10° ESE
PAYLOAD B 4.5 06:12:05 10° N 06:17:19 46° WNW 06:22:33 10° SW
STARLINK 1041 3.1 06:15:59 19° WNW 06:18:21 86° NNE 06:21:46 10° ESE
FALCON 9 DEB 2.4 06:17:13 24° WNW 06:18:21 55° SW 06:20:41 10° SE
Cosmos 2221 Rocket 3.5 06:15:03 10° NNW 06:19:29 76° W 06:23:53 10° S
FENGYUN 3A 4.0 06:15:04 10° N 06:20:07 42° WNW 06:25:08 10° SW
CZ-4 R/B 4.3 06:17:46 10° NE 06:20:34 19° E 06:23:23 10° SE
STARLINK 1038 3.1 06:18:39 18° WNW 06:21:07 90° WSW 06:24:32 10° ESE
STARLINK 1046 3.1 06:21:17 17° WNW 06:23:52 86° SW 06:27:17 10° ESE
Cosmos 1741 Rocket 4.0 06:19:09 10° NNW 06:24:23 76° WSW 06:29:35 10° SSE
FALCON 9 DEB 2.7 06:23:05 20° WNW 06:24:27 46° SW 06:26:45 10° SE
STARLINK 1039 3.1 06:23:57 16° WNW 06:26:38 83° SSW 06:30:03 10° SE
STARLINK 1045 3.1 06:24:41 15° WNW 06:27:25 82° SSW 06:30:50 10° SE
Cosmos 1461 4.2 06:27:26 13° WNW 06:30:18 25° WSW 06:33:54 10° S
COSMO-SKYMED 1 4.3 06:28:17 10° WSW 06:30:34 14° W 06:32:14 12° WNW
Meteor 1-19 Rocket 4.3 06:25:48 10° NNW 06:31:09 56° W 06:36:35 10° S
Okean O Rocket 2.2 06:27:20 10° N 06:31:16 33° WNW 06:35:13 10° SW
Cosmos 1943 3.6 06:26:07 10° NW 06:31:26 44° WSW 06:36:42 10° S
H-2A R/B 2.6 06:27:42 10° N 06:31:26 80° WNW 06:35:11 10° SSW
Cosmos 2266 Rocket 4.3 06:25:20 10° N 06:31:38 71° E 06:37:44 10° SSE
STARLINK 1034 2.8 06:29:52 14° WNW 06:32:14 63° SSW 06:35:08 10° SE
STARLINK 1027 2.8 06:30:33 14° WNW 06:32:54 62° SW 06:35:48 10° SE
STARLINK 1028 2.9 06:30:46 14° WNW 06:33:08 62° SSW 06:36:02 10° SE
STARLINK 1021 2.9 06:30:59 14° WNW 06:33:22 62° SW 06:36:15 10° SE
STARLINK 1019 2.9 06:31:09 14° WNW 06:33:35 62° SW 06:36:30 10° SE
STARLINK 1012 2.9 06:31:24 14° WNW 06:33:48 61° SW 06:36:41 10° SE
STARLINK 1010 2.9 06:31:37 14° WNW 06:34:01 61° SW 06:36:54 10° SE
STARLINK 1052 2.9 06:31:40 14° WNW 06:34:06 61° SSW 06:37:00 10° SE
STARLINK 1026 2.9 06:31:51 14° WNW 06:34:16 60° SW 06:37:10 10° SE
STARLINK 1013 2.9 06:32:04 14° WNW 06:34:30 60° SW 06:37:23 10° SE
STARLINK 1009 2.9 06:32:16 14° WNW 06:34:42 60° SSW 06:37:35 10° SE
STARLINK 1015 2.9 06:32:29 14° WNW 06:34:56 60° SW 06:37:49 10° SE
STARLINK 1016 2.9 06:32:42 13° WNW 06:35:09 59° SW 06:38:02 10° SE
STARLINK 1008 2.9 06:32:56 13° WNW 06:35:24 59° SW 06:38:17 10° SE
STARLINK 1014 2.9 06:33:09 13° WNW 06:35:36 59° SW 06:38:30 10° SE
STARLINK 1017 2.9 06:33:12 13° WNW 06:35:40 59° SW 06:38:33 10° SE
STARLINK 1025 2.9 06:33:22 13° WNW 06:35:51 58° SSW 06:38:43 10° SE
STARLINK 1023 3.0 06:33:48 13° WNW 06:36:18 58° SSW 06:39:10 10° SE
STARLINK 1007 3.0 06:33:59 13° WNW 06:36:29 58° SW 06:39:22 10° SE
STARLINK 1048 3.0 06:34:13 13° WNW 06:36:44 57° SW 06:39:36 10° SE
STARLINK 1049 3.0 06:34:26 13° WNW 06:36:57 57° SW 06:39:50 10° SE
STARLINK 1040 3.1 06:34:33 13° WNW 06:37:04 53° SW 06:39:56 10° SE
STARLINK 1051 3.0 06:34:39 13° WNW 06:37:10 57° SW 06:40:03 10° SE
Envisat 3.9 06:32:19 10° NNE 06:37:20 55° E 06:42:18 10° S
STARLINK 1037 3.0 06:34:53 13° WNW 06:37:25 56° SW 06:40:17 10° SE
STARLINK 1059 3.0 06:35:05 13° WNW 06:37:37 56° SW 06:40:30 10° SE
STARLINK 1057 3.0 06:35:18 13° WNW 06:37:50 56° SW 06:40:43 10° SE
STARLINK 1068 3.0 06:35:44 12° WNW 06:38:18 55° SW 06:41:10 10° SE
STARLINK 1029 3.0 06:35:57 12° WNW 06:38:32 55° SW 06:41:24 10° SE
STARLINK 1060 3.0 06:36:11 12° WNW 06:38:45 55° SW 06:41:38 10° SE
Helios 1A Rocket 3.8 06:35:29 10° N 06:38:55 27° WNW 06:42:20 10° SW
STARLINK 1030 3.0 06:36:21 12° WNW 06:38:58 55° SW 06:41:53 10° SE
STARLINK 1020 3.0 06:36:36 12° WNW 06:39:12 54° SW 06:42:04 10° SE
Cosmos 2082 Rocket 4.5 06:37:26 10° N 06:39:47 12° NE 06:42:08 10° ENE
STARLINK 1033 3.1 06:37:14 12° WNW 06:39:52 53° SW 06:42:43 10° SE
STARLINK 1031 3.1 06:37:29 12° WNW 06:40:06 53° SW 06:42:58 10° SE
STARLINK 1024 3.1 06:37:39 12° WNW 06:40:20 53° SW 06:43:14 10° SE
Cosmos 1452 Rocket 3.7 06:35:24 10° SW 06:40:30 49° WNW 06:45:40 10° NNE
STARLINK 1035 3.1 06:37:54 12° WNW 06:40:33 53° SW 06:43:25 10° SE
STARLINK 1032 3.1 06:38:07 12° WNW 06:40:46 52° SW 06:43:38 10° SE
STARLINK 1011 3.1 06:38:17 11° WNW 06:40:59 52° SW 06:43:53 10° SE
STARLINK 1036 3.1 06:38:34 11° WNW 06:41:14 52° SW 06:44:04 10° SE
STARLINK 1047 3.1 06:38:59 11° WNW 06:41:40 51° SW 06:44:32 10° SE
Okean 1 4.4 06:39:42 10° NW 06:42:55 24° W 06:46:07 10° SW
Okean-O 3.1 06:38:45 10° NNE 06:43:12 68° ESE 06:47:35 10° S
YAOGAN 6 3.8 06:40:56 10° NNE 06:44:31 48° E 06:48:06 10° S
Cosmos 1850 Rocket 4.4 06:41:15 10° NNW 06:46:23 48° WSW 06:51:29 10° S
SL-23 DEB 3.7 06:44:46 10° SW 06:47:53 72° SSE 06:51:34 10° ENE
Starlink Launch 2 leader 3.7 06:46:21 10° W 06:48:29 26° SW 06:50:37 10° SSE
Meteor 1-5 Rocket 4.5 06:42:36 10° S 06:48:35 88° E 06:54:30 10° NNE
Meteor 2-4 Rocket 3.7 06:44:10 10° NNW 06:49:39 61° W 06:54:58 10° S
AQUARIUS 4.2 06:46:16 10° N 06:50:43 62° WNW 06:55:09 10° SSW
Starlink Launch 2 trailer 3.9 06:50:05 10° W 06:52:09 24° SW 06:54:13 10° SSE
